TimeCST,TemperatureF,Dew PointF,Humidity,Sea Level PressureIn,VisibilityMPH,Wind Direction,Wind SpeedMPH,Gust SpeedMPH,PrecipitationIn,Events,Conditions,WindDirDegrees,DateUTC
12:15 AM,32.0,32.0,100,29.82,3.0,Calm,Calm,-,N/A,Snow,Light Snow,0,2013-02-22 06:15:00
12:35 AM,32.0,32.0,100,29.82,2.5,Calm,Calm,-,0.01,Snow,Light Snow,0,2013-02-22 06:35:00
12:55 AM,32.0,32.0,100,29.81,4.0,Calm,Calm,-,0.02,Snow,Light Snow,0,2013-02-22 06:55:00
1:15 AM,32.0,32.0,100,29.81,6.0,Calm,Calm,-,N/A,,Overcast,0,2013-02-22 07:15:00
1:35 AM,32.0,32.0,100,29.81,9.0,Calm,Calm,-,N/A,,Overcast,0,2013-02-22 07:35:00
1:55 AM,32.0,32.0,100,29.82,10.0,Calm,Calm,-,N/A,,Overcast,0,2013-02-22 07:55:00
2:15 AM,32.0,32.0,100,29.81,8.0,Calm,Calm,-,N/A,,Overcast,0,2013-02-22 08:15:00
2:35 AM,32.0,32.0,100,29.80,7.0,Calm,Calm,-,N/A,,Overcast,0,2013-02-22 08:35:00
2:55 AM,32.0,32.0,100,29.80,8.0,Calm,Calm,-,N/A,,Overcast,0,2013-02-22 08:55:00
3:15 AM,32.0,32.0,100,29.79,7.0,Calm,Calm,-,N/A,,Overcast,0,2013-02-22 09:15:00
3:35 AM,32.0,32.0,100,29.79,8.0,SE,3.5,-,N/A,,Overcast,130,2013-02-22 09:35:00
3:55 AM,32.0,32.0,100,29.79,10.0,Calm,Calm,-,N/A,,Overcast,0,2013-02-22 09:55:00
4:15 AM,32.0,32.0,100,29.80,8.0,Calm,Calm,-,N/A,,Overcast,0,2013-02-22 10:15:00
4:35 AM,32.0,32.0,100,29.81,7.0,Calm,Calm,-,N/A,,Overcast,0,2013-02-22 10:35:00
4:55 AM,32.0,32.0,100,29.81,10.0,WSW,6.9,-,N/A,,Overcast,240,2013-02-22 10:55:00
5:15 AM,33.8,32.0,93,29.82,10.0,Calm,Calm,-,N/A,,Overcast,0,2013-02-22 11:15:00
5:35 AM,33.8,32.0,93,29.82,10.0,Calm,Calm,-,N/A,Rain,Light Rain,0,2013-02-22 11:35:00
6:15 AM,33.8,32.0,93,29.84,10.0,SSW,4.6,-,N/A,,Overcast,200,2013-02-22 12:15:00
6:35 AM,33.8,32.0,93,29.85,10.0,SSW,5.8,-,N/A,,Overcast,210,2013-02-22 12:35:00
6:55 AM,33.8,32.0,93,29.86,10.0,SSW,8.1,-,N/A,,Overcast,210,2013-02-22 12:55:00
7:15 AM,35.6,32.0,87,29.87,10.0,SSW,6.9,-,N/A,,Overcast,200,2013-02-22 13:15:00
7:35 AM,33.8,32.0,93,29.87,10.0,South,4.6,-,N/A,,Overcast,190,2013-02-22 13:35:00
7:55 AM,35.6,32.0,87,29.88,10.0,SW,5.8,-,N/A,,Overcast,220,2013-02-22 13:55:00
8:15 AM,35.6,32.0,87,29.89,10.0,SW,11.5,-,N/A,,Overcast,220,2013-02-22 14:15:00
8:35 AM,35.6,30.2,81,29.91,10.0,SW,13.8,-,N/A,,Overcast,230,2013-02-22 14:35:00
8:55 AM,33.8,28.4,81,29.92,10.0,WSW,10.4,18.4,N/A,,Overcast,250,2013-02-22 14:55:00
9:15 AM,33.8,26.6,75,29.93,10.0,West,11.5,-,N/A,,Overcast,270,2013-02-22 15:15:00
9:35 AM,32.0,26.6,80,29.94,10.0,West,11.5,-,N/A,,Overcast,260,2013-02-22 15:35:00
9:55 AM,32.0,26.6,80,29.94,10.0,West,11.5,18.4,N/A,,Overcast,280,2013-02-22 15:55:00
10:15 AM,32.0,26.6,80,29.95,10.0,WSW,8.1,18.4,N/A,,Overcast,250,2013-02-22 16:15:00
10:35 AM,32.0,26.6,80,29.96,10.0,West,10.4,-,N/A,,Overcast,260,2013-02-22 16:35:00
10:55 AM,32.0,26.6,80,29.97,10.0,West,6.9,16.1,N/A,,Overcast,260,2013-02-22 16:55:00
11:15 AM,32.0,26.6,80,29.97,10.0,West,8.1,-,N/A,,Overcast,270,2013-02-22 17:15:00
11:35 AM,32.0,26.6,80,29.98,10.0,WSW,8.1,16.1,N/A,,Overcast,250,2013-02-22 17:35:00
11:55 AM,32.0,26.6,80,29.99,10.0,West,6.9,-,N/A,,Overcast,260,2013-02-22 17:55:00
12:15 PM,32.0,26.6,80,29.99,10.0,WSW,10.4,-,N/A,,Overcast,250,2013-02-22 18:15:00
12:35 PM,32.0,24.8,75,29.98,10.0,West,9.2,-,N/A,,Overcast,260,2013-02-22 18:35:00
12:55 PM,32.0,24.8,75,29.99,10.0,West,8.1,-,N/A,,Overcast,270,2013-02-22 18:55:00
1:15 PM,32.0,23.0,69,29.99,10.0,West,8.1,21.9,N/A,,Overcast,270,2013-02-22 19:15:00
1:35 PM,32.0,23.0,69,29.98,10.0,West,11.5,20.7,N/A,,Overcast,280,2013-02-22 19:35:00
1:55 PM,32.0,24.8,75,29.99,10.0,West,10.4,19.6,N/A,,Overcast,270,2013-02-22 19:55:00
2:15 PM,32.0,23.0,69,30.00,10.0,West,9.2,-,N/A,,Overcast,280,2013-02-22 20:15:00
2:35 PM,32.0,23.0,69,30.00,10.0,West,11.5,18.4,N/A,,Overcast,280,2013-02-22 20:35:00
2:55 PM,32.0,21.2,64,30.00,10.0,West,12.7,19.6,N/A,,Mostly Cloudy,280,2013-02-22 20:55:00
3:15 PM,32.0,23.0,69,30.00,10.0,WNW,9.2,-,N/A,,Scattered Clouds,300,2013-02-22 21:15:00
3:35 PM,32.0,21.2,64,30.00,10.0,WNW,10.4,-,N/A,,Partly Cloudy,290,2013-02-22 21:35:00
3:55 PM,32.0,21.2,64,30.00,10.0,NW,11.5,-,N/A,,Partly Cloudy,310,2013-02-22 21:55:00
4:15 PM,32.0,21.2,64,30.01,10.0,NW,11.5,-,N/A,,Clear,310,2013-02-22 22:15:00
4:35 PM,32.0,21.2,64,30.01,10.0,NW,10.4,-,N/A,,Clear,310,2013-02-22 22:35:00
4:55 PM,32.0,21.2,64,30.01,10.0,NW,11.5,-,N/A,,Clear,310,2013-02-22 22:55:00
5:15 PM,32.0,19.4,60,30.01,10.0,NW,9.2,-,N/A,,Clear,310,2013-02-22 23:15:00
5:35 PM,30.2,19.4,64,30.01,10.0,NW,9.2,-,N/A,,Clear,310,2013-02-22 23:35:00
5:55 PM,30.2,19.4,64,30.02,10.0,NW,6.9,-,N/A,,Clear,310,2013-02-22 23:55:00
6:15 PM,28.4,19.4,69,30.02,10.0,NW,6.9,-,N/A,,Clear,320,2013-02-23 00:15:00
6:35 PM,28.4,19.4,69,30.03,10.0,NW,8.1,-,N/A,,Clear,320,2013-02-23 00:35:00
6:55 PM,28.4,17.6,64,30.03,10.0,Calm,Calm,-,N/A,,Clear,0,2013-02-23 00:55:00
7:15 PM,28.4,17.6,64,30.04,10.0,Calm,Calm,-,N/A,,Clear,0,2013-02-23 01:15:00
7:35 PM,28.4,17.6,64,30.04,10.0,Calm,Calm,-,N/A,,Clear,0,2013-02-23 01:35:00
7:55 PM,26.6,17.6,69,30.04,10.0,NNW,5.8,-,N/A,,Clear,340,2013-02-23 01:55:00
8:15 PM,26.6,17.6,69,30.05,10.0,NNW,4.6,-,N/A,,Clear,330,2013-02-23 02:15:00
8:35 PM,26.6,17.6,69,30.06,10.0,NW,3.5,-,N/A,,Clear,320,2013-02-23 02:35:00
8:55 PM,24.8,17.6,74,30.06,10.0,Calm,Calm,-,N/A,,Clear,0,2013-02-23 02:55:00
9:15 PM,26.6,17.6,69,30.07,10.0,Calm,Calm,-,N/A,,Clear,0,2013-02-23 03:15:00
9:35 PM,24.8,17.6,74,30.08,10.0,NW,3.5,-,N/A,,Clear,320,2013-02-23 03:35:00
9:55 PM,24.8,17.6,74,30.08,10.0,Calm,Calm,-,N/A,,Clear,0,2013-02-23 03:55:00
10:15 PM,24.8,17.6,74,30.08,10.0,Calm,Calm,-,N/A,,Clear,0,2013-02-23 04:15:00
10:35 PM,23.0,19.4,86,30.08,10.0,Calm,Calm,-,N/A,,Clear,0,2013-02-23 04:35:00
10:55 PM,19.4,17.6,93,30.08,10.0,Calm,Calm,-,N/A,,Clear,0,2013-02-23 04:55:00
11:15 PM,21.2,17.6,86,30.08,10.0,Calm,Calm,-,N/A,,Clear,0,2013-02-23 05:15:00
11:55 PM,21.2,17.6,86,30.07,10.0,Calm,Calm,-,N/A,,Clear,0,2013-02-23 05:55:00